Lancaster, PA

9:58 PM EDT on September 21, 2017 (GMT -0400)
Lancaster

Weather History for KLNS - January, 2006

Change the Weather History Date:

Wednesday, January 11, 2006

  Actual Average Record
Temperature  
Mean Temperature 42 °F -  
Max Temperature 50 °F 36 °F 57 °F (2014)
Min Temperature 33 °F 20 °F -6 °F (1988)
Degree Days  
Heating Degree Days 24    
Moisture  
Dew Point 40 °F    
Average Humidity 92    
Maximum Humidity 100    
Minimum Humidity 78    
Precipitation  
Precipitation 0.32 in - - ()
Sea Level Pressure  
Sea Level Pressure 30.10 in    
Wind  
Wind Speed 3 mph (ESE)    
Max Wind Speed 12 mph    
Max Gust Speed -    
Visibility 3 miles    
Events Fog , Rain    
Averages and records for this station are not official NWS values.
T = Trace of Precipitation, MM = Missing Value Source: NWS Daily Summary

Daily Weather History Graph

Daily Weather History Graph

Search for Another Location

Airport or City:

Trip Planner

Search our weather history database for the weather conditions in past years. The results will help you decide how hot, cold, wet, or windy it might be!

Date:

Astronomy

Jan. 11, 2006 Rise Set
Actual Time 7:26 AM EST 4:59 PM EST
Civil Twilight 6:56 AM EST 5:29 PM EST
Nautical Twilight 6:23 AM EST 6:03 PM EST
Astronomical Twilight 5:50 AM EST 6:36 PM EST
Moon 2:18 PM EST (1/11) 5:28 AM EST (1/11)
Length of Visible Light 10h 33m
Length of Day
9h 32m
Waxing Gibbous, 93% of the Moon is Illuminated
Jan 11
Waxing Gibbous
Jan 14
Full
Jan 22
Last Quarter
Jan 29
New
Feb 5
First Quarter

Hourly Weather History & Observations

Time (EST) Temp. Windchill Dew Point Humidity Pressure Visibility Wind Dir Wind Speed Gust Speed Precip Events Conditions
12:53 AM 35.1 °F - 28.9 °F 78% 30.38 in 6.0 mi Calm Calm - N/A   Haze
1:53 AM 34.0 °F 31.0 °F 30.0 °F 85% 30.38 in 6.0 mi ENE 3.5 mph - N/A   Mostly Cloudy
2:53 AM 34.0 °F 29.8 °F 30.0 °F 85% 30.36 in 6.0 mi East 4.6 mph - N/A   Mostly Cloudy
3:53 AM 34.0 °F 29.8 °F 30.0 °F 85% 30.32 in 5.0 mi ENE 4.6 mph - N/A   Mostly Cloudy
4:46 AM 33.8 °F - 30.2 °F 87% 30.30 in 5.0 mi Calm Calm - N/A   Mostly Cloudy
4:53 AM 35.1 °F - 30.9 °F 85% 30.31 in 5.0 mi Calm Calm - N/A   Mostly Cloudy
5:30 AM 35.6 °F - 32.0 °F 87% 30.29 in 5.0 mi Calm Calm - N/A   Overcast
5:38 AM 37.4 °F - 32.0 °F 81% 30.29 in 5.0 mi Calm Calm - N/A   Haze
5:53 AM 37.0 °F - 33.1 °F 86% 30.29 in 5.0 mi Calm Calm - N/A   Overcast
6:53 AM 36.0 °F 32.1 °F 33.1 °F 89% 30.27 in 4.0 mi East 4.6 mph - 0.00 in   Overcast
7:53 AM 37.0 °F - 33.1 °F 86% 30.25 in 3.0 mi Calm Calm - N/A   Overcast
8:46 AM 37.4 °F 33.8 °F 33.8 °F 87% 30.23 in 2.5 mi East 4.6 mph - N/A   Overcast
8:53 AM 37.9 °F 34.4 °F 35.1 °F 89% 30.24 in 2.5 mi East 4.6 mph - N/A   Overcast
9:15 AM 39.2 °F 35.9 °F 35.6 °F 87% 30.21 in 2.5 mi East 4.6 mph - N/A   Overcast
9:30 AM 39.2 °F 35.9 °F 37.4 °F 93% 30.21 in 1.8 mi ENE 4.6 mph - N/A   Overcast
9:53 AM 39.9 °F 36.7 °F 37.0 °F 89% 30.22 in 1.2 mi ENE 4.6 mph - N/A   Overcast
10:06 AM 39.2 °F 35.9 °F 37.4 °F 93% 30.20 in 0.5 mi ENE 4.6 mph - N/A Fog Fog
10:22 AM 39.2 °F 37.0 °F 39.2 °F 100% 30.20 in 0.2 mi East 3.5 mph - N/A Fog Fog
10:38 AM 41.0 °F - 39.2 °F 93% 30.19 in 0.2 mi Calm Calm - N/A Fog Fog
10:53 AM 41.0 °F - 39.9 °F 96% 30.19 in 0.2 mi Calm Calm - N/A Fog Fog
11:53 AM 42.1 °F 40.2 °F 41.0 °F 96% 30.12 in 0.2 mi ENE 3.5 mph - N/A Fog Fog
12:53 PM 44.1 °F 40.8 °F 42.1 °F 93% 30.06 in 0.2 mi ENE 5.8 mph - N/A Fog Fog
1:53 PM 44.1 °F - 44.1 °F 100% 30.05 in 0.2 mi Calm Calm - 0.00 in Fog , Rain Light Rain
2:53 PM 44.1 °F - 43.0 °F 96% 30.04 in 0.2 mi Calm Calm - 0.02 in Fog , Rain Light Rain
3:20 PM 44.6 °F 42.2 °F 42.8 °F 93% 30.01 in 0.2 mi East 4.6 mph - 0.08 in Fog , Rain Heavy Rain
3:53 PM 45.0 °F 41.2 °F 44.1 °F 97% 30.01 in 0.5 mi East 6.9 mph - 0.20 in Fog , Rain Rain
4:03 PM 44.6 °F 40.2 °F 44.6 °F 100% 29.99 in 0.2 mi ESE 8.1 mph - 0.03 in Fog , Rain Rain
4:28 PM 44.6 °F 41.4 °F 44.6 °F 100% 29.96 in 0.8 mi ESE 5.8 mph - 0.06 in Rain Light Rain
4:36 PM 46.4 °F 41.9 °F 44.6 °F 93% 29.96 in 1.8 mi SE 9.2 mph - 0.07 in Rain Light Rain
4:44 PM 46.4 °F 42.9 °F 44.6 °F 93% 29.96 in 2.5 mi SE 6.9 mph - 0.08 in Rain Light Rain
4:53 PM 46.0 °F 42.5 °F 45.0 °F 96% 29.96 in 2.0 mi SE 6.9 mph - 0.09 in Rain Rain
5:03 PM 46.4 °F 45.2 °F 44.6 °F 93% 29.94 in 2.0 mi East 3.5 mph - 0.00 in Rain Light Rain
5:23 PM 46.4 °F 43.5 °F 46.4 °F 100% 29.93 in 5.0 mi ESE 5.8 mph - 0.01 in Rain Light Rain
5:33 PM 46.4 °F - 46.4 °F 100% 29.93 in 6.0 mi Calm Calm - 0.01 in   Overcast
5:53 PM 48.9 °F - 46.9 °F 93% 29.94 in 9.0 mi SSW 9.2 mph - 0.01 in   Overcast
6:53 PM 50.0 °F - 46.9 °F 89% 29.91 in 8.0 mi SSW 8.1 mph - N/A   Overcast
7:53 PM 50.0 °F - 48.0 °F 93% 29.91 in 6.0 mi WSW 10.4 mph - N/A   Overcast
8:53 PM 48.9 °F - 46.9 °F 93% 29.93 in 4.0 mi WSW 11.5 mph - N/A   Overcast
9:53 PM 48.0 °F - 46.0 °F 93% 29.94 in 4.0 mi West 10.4 mph - 0.00 in   Overcast
10:18 PM 46.4 °F 41.9 °F 44.6 °F 93% 29.94 in 2.5 mi West 9.2 mph - N/A   Overcast
10:37 PM 46.4 °F 41.9 °F 44.6 °F 93% 29.94 in 2.5 mi West 9.2 mph - N/A   Mostly Cloudy
11:04 PM 42.8 °F 39.3 °F 42.8 °F 100% 29.95 in 1.2 mi West 5.8 mph - N/A   Partly Cloudy
11:13 PM 42.8 °F 38.6 °F 42.8 °F 100% 29.95 in 0.5 mi West 6.9 mph - N/A Fog Fog
11:26 PM 42.8 °F 38.6 °F 41.0 °F 93% 29.95 in 0.2 mi West 6.9 mph - N/A Fog Fog
11:53 PM 42.1 °F 37.7 °F 41.0 °F 96% 29.96 in 0.2 mi West 6.9 mph - N/A Fog Fog